Meath Environmental Platform

Observations for Trim Market St

Time AQI Temp °C Hum % Pres Pa CO μg/m³ H₂S μg/m³ NO μg/m³ NO₂ μg/m³ O₃ μg/m³ SO₂ μg/m³ PM1 μg/m³ PM2.5 μg/m³ PM10 μg/m³
Sunday 23 August 2026
19:47 3 19.1 47 63,888 0 0.55 1.22 17.59 79.39 0 0 2.57 2.83
19:46 3 19.1 47 64,001 0 0.13 1.27 16.52 79.56 0 0 3.1 3.71
19:45 3 19.2 47 64,117 0 0.4 1.43 26.36 63.74 0 0.71 3.62 5.23
19:44 3 19.3 47 64,205 0 0.32 1.5 21.34 68.8 0 2.14 5.19 6
19:43 3 19.3 47 64,315 0 0.45 1.47 16.7 80.29 0 0.71 3.12 3.43
19:42 3 19.4 46 64,396 0 0.13 1.68 27.52 60.34 0 1.43 3.64 3.69
19:41 3 19.4 46 64,475 0 0.68 1.84 54.4 34.89 0 2.14 5.73 6.76
19:40 3 19.5 46 64,542 0 0.16 1.41 24.08 58.92 0 1.43 3.66 4.45
19:37 3 19.6 46 64,625 0 1.08 1.24 36.15 51.82 0 0.71 4.19 4.45
19:36 3 19.7 46 64,703 0 1 1.24 22.58 63.37 0 0.71 3.67 4.04
19:35 3 19.7 46 64,740 0 0.53 1.18 19.66 69.36 0 1.43 4.2 4.44
19:34 3 19.7 46 64,787 0.09 1.84 1.17 27.71 56.03 0 2.14 5.25 5.98
19:32 3 19.9 45 64,866 1.33 4.89 1.11 18.72 68.02 0 1.43 4.22 6.75
19:30 3 20 45 64,950 0 0 1.1 18.35 65.75 0 2.85 6.32 7.53
19:29 3 20 45 64,993 0 0.13 1.16 18.35 68.53 0 2.14 5.29 7.53
19:28 3 20.1 45 65,023 0 0.63 1.15 19.29 70.14 0 2.14 5.3 7.53
19:27 3 20.1 44 65,062 0 0 1.15 18.93 63.44 0 2.14 5.82 6.75
19:25 3 20.2 44 65,139 0 0 1.19 15.5 80.06 0 2.14 5.32 5.97
19:19 3 20.6 43 65,268 0 0 1.32 21.07 61.46 0 1.43 4.31 4.39
19:16 3 20.8 43 65,343 0 0 1.08 15.73 65.48 0 1.43 4.85 5.95